Regional Weather Roundup
Issued by NWS

Home | Current Version | Previous Version | Text Only | Print | Product List | Glossary Off
Versions: 1 2 3 4 5 6 7 8 9 10 11 12 13 14 15 16 17 18 19 20 21 22 23 24 25 26 27 28 29 30 31 32 33 34 35 36 37 38 39 40 41 42 43 44 45 46 47 48 49 50

000
ASUS43 KDTX 202310
RWRMI
MICHIGAN HOURLY REGIONAL WEATHER ROUNDUP
NATIONAL WEATHER SERVICE DETROIT/PONTIAC MI
ISSUED BY NATIONAL WEATHER SERVICE GRAND RAPIDS MI
700 PM EDT SUN MAY 20 2018

NOTE: "FAIR" INDICATES FEW OR NO CLOUDS BELOW 12,000 FEET WITH NO
SIGNIFICANT WEATHER AND/OR OBSTRUCTION TO VISIBILITY.

MIZ047>049-052>055-059>063-066>070-074>076-081>083-210000-
SOUTHEAST LOWER MICHIGAN

CITY           SKY/WX    TMP DP  RH WIND       PRES   REMARKS
ADRIAN         CLOUDY    63  59  87 E5        30.15F
ALMA           FAIR      57  52  83 E7        30.20S
ANN ARBOR      CLOUDY    61  56  83 N8        30.16S
BAD AXE        FAIR      57  48  71 NE6       30.20S
DETROIT CITY   CLOUDY    59  51  75 NE7       30.17S
DETROIT        CLOUDY    60  51  72 E7        30.17R
FLINT          CLOUDY    58  50  75 N7        30.18S
GROSSE ILE     CLOUDY    58  53  83 NE7       30.16F
HILLSDALE      CLOUDY    61  55  82 N6        30.16S
HOWELL         CLOUDY    57  52  82 NE6       30.18F

CITY           SKY/WX    TMP DP  RH WIND       PRES   REMARKS
JACKSON        CLOUDY    59  54  83 N7        30.17F
LANSING        CLOUDY    58  52  80 NE8       30.19S
MASON          CLOUDY    58  53  83 NE6       30.18F
MONROE         CLOUDY    58  56  92 SE5       30.16F
MT. CLEMENS    PTSUNNY   60  56  89 NE7       30.17F
PONTIAC        CLOUDY    57  52  83 N10       30.18R
PORT HOPE        N/A     48  42  80 CALM      30.19F
PORT HURON     FAIR      50  41  71 NE7       30.19F
TRI CITIES     FAIR      61  49  64 NE5       30.20F
YPSILANTI      CLOUDY    64  55  72 E7        30.17R
$$
MIZ043>046-050>051-056>058-064>065-071>073-077>080-210000-
SOUTHWEST LOWER MICHIGAN

CITY           SKY/WX    TMP DP  RH WIND       PRES   REMARKS
BATTLE CREEK   CLOUDY    58  54  86 E7        30.17F
BENTON HARBOR    N/A     59  54  83 E5        30.16F
BIG RAPIDS     FAIR      64  46  52 E3        30.16F
COLDWATER      CLOUDY    61  57  87 N8        30.16S
HOLLAND        PTSUNNY   62  52  69 NE5       30.17F
GRAND RAPIDS   PTSUNNY   61  53  75 NE7       30.17F
KALAMAZOO      CLOUDY    60  55  83 VRB3      30.16F
MARSHALL       CLOUDY    57  55  95 N5        30.17S
MOUNT PLEASANT FAIR      62  50  63 CALM      30.18S
MUSKEGON       PTSUNNY   59  48  67 W3        30.17F
STURGIS        CLOUDY    62  58  87 N9        30.15S
$$
MIZ016>042-210000-
NORTHERN LOWER MICHIGAN

CITY           SKY/WX    TMP DP  RH WIND       PRES   REMARKS
ALPENA         FAIR      63  31  30 N14       30.19S
BEAVER ISLAND  FAIR      58  32  38 W5        30.22S
BELLAIRE       FAIR      63  34  33 N5        30.20S
CADILLAC       FAIR      65  44  46 NW8       30.17S
CHARLEVOIX     FAIR      54  35  47 W5        30.24F
GAYLORD        FAIR      63  41  44 VRB7      30.18S
HOUGHTON LAKE  FAIR      66  46  48 W6        30.16F
MANISTEE       FAIR      57  43  59 NW8       30.18F
OSCODA         FAIR      52  38  60 E6        30.20S
PELLSTON       FAIR      64  30  27 NW3       30.20F
TRAVERSE CITY  FAIR      56  42  59 NE6       30.20S
LUDINGTON      FAIR      55  44  65 N8        30.18S
$$
MIZ007>008-015-210000-
EASTERN UPPER MICHIGAN

CITY           SKY/WX    TMP DP  RH WIND       PRES   REMARKS
KINROSS        FAIR      55  29  36 N14       30.21S
MACKINAC ISLAN FAIR      56  29  35 W3        30.20S
NEWBERRY       FAIR      60  28  29 N6        30.20F
S. S. MARIE    FAIR      56  31  38 NW12      30.20S
$$
MIZ004>006-011>014-085-210000-
CENTRAL UPPER MICHIGAN

CITY           SKY/WX    TMP DP  RH WIND       PRES   REMARKS
MANISTIQUE     FAIR      54  33  43 S3        30.21S
ESCANABA       FAIR      58  35  42 SE8       30.21S
SAWYER-GWINN   SUNNY     63  27  25 E5        30.20F
$$
MIZ001>003-009>011-084-210000-
WESTERN UPPER MICHIGAN

CITY           SKY/WX    TMP DP  RH WIND       PRES   REMARKS
IRON MOUNTAIN  FAIR      69  24  18 VRB3      30.17F
HOUGHTON       FAIR      66  28  24 W12       30.18F
COPPER HARBOR    N/A     52  35  52 CALM      30.17F
IRONWOOD       FAIR      64  32  30 NE6       30.20F
$$

ABBREVIATIONS USED IN REMARKS
   TC - TEMPERATURE IN CELSIUS
  WCI - WIND CHILL INDEX
   HX - HEAT INDEX
  VSB - VISIBILITY




USA.gov is the U.S. government's official web portal to all federal, state and local government web resources and services.